Terminal Aerodrome Forecast
Issued by NWS

Home | Current Version | Previous Version | Text Only | Print | Product List | Glossary On
Versions: 1 2 3 4 5 6 7 8 9 10 11 12 13 14 15 16 17 18 19 20 21 22 23 24 25 26 27 28 29 30 31 32 33 34 35 36 37 38 39 40 41 42 43 44 45 46
000
FTUS45 KGJT 010859 AAA
TAFEGE
TAF AMD
KEGE 010859Z 0109/0206 10006KT P6SM VCFG SCT025 SCT060
     FM011100 00000KT 3SM BR SCT006 BKN015
     FM011600 VRB03KT P6SM FEW020 SCT050
     FM011800 26005KT P6SM SCT050 BKN100
     FM020100 VRB03KT P6SM BKN070
      AMD LTD TO CLD VIS AND WIND TIL 011400=

USA.gov is the U.S. government's official web portal to all federal, state and local government web resources and services.